Home > Weather > Scheibbs > Past weeks

Flag for Austria Past Weather in Scheibbs, Lower Austria, Austria — Yesterday and Last 2 Weeks

Now
75 °F

Mild.


Feels Like: 77 °F
Forecast: 56 / 83 °F
Wind: 1 mph from Southeast

Location: Amstetten

Current Time: May 28, 2016 at 2:00:42 PM

Latest Report: May 28, 2016 at 12:00 PM


Visibility: N/A

Pressure: 29.88 "Hg

Humidity: 59%

Dew Point: 60 °F

Location of ScheibbsLocation

Past Weather in Scheibbs — Graph

°F

Scheibbs Temperature Yesterday

Maximum temperature yesterday: 78 °F (at 5:00 PM)
Minimum temperature yesterday: 54 °F (at 5:00 AM)
Average temperature yesterday: 66 °F

High & Low Weather Summary for the Past Weeks

 TemperatureHumidityPressure
High83 °F (May 22, 4:00 PM)100% (May 21, 3:00 AM)30.20 "Hg (May 21, 3:00 AM)
Low42 °F (May 16, 4:00 AM)24% (May 21, 4:00 PM)29.41 "Hg (May 13, 12:00 PM)
Average57 °F78%29.93 "Hg
* Reported May 13 12:00 PM — May 28 12:00 PM, Scheibbs, Weather by CustomWeather, © 2016

Note: Actual official high and low records may vary slightly from our data, if they occured in-between our weather recording intervals... More about our weather records

Advertising

Scheibbs Weather History for the Previous 24 Hours

Scroll right to see more
 ConditionsComfort  
Time TempWeatherWind HumidityBarometerVisibility
12:00 PM
Sat, May 28
75 °FMild.1 mph59%29.88 "HgN/A
11:00 AM73 °FMild.2 mph66%29.91 "HgN/A
10:00 AM68 °FMild.2 mph80%29.93 "HgN/A
9:00 AM63 °FMild.1 mph96%29.94 "HgN/A
8:00 AM61 °FCool.2 mph100%29.94 "HgN/A
7:00 AM59 °FCool.1 mph100%29.94 "HgN/A
6:00 AM58 °FCool.No wind100%29.94 "HgN/A
5:00 AM59 °FCool.No wind100%29.95 "HgN/A
4:00 AM59 °FCool.1 mph100%29.95 "HgN/A
3:00 AM62 °FCool.No wind100%29.94 "HgN/A
2:00 AM63 °FMild.1 mph100%29.94 "HgN/A
1:00 AM64 °FMild.1 mph98%29.95 "HgN/A
12:00 AM66 °FSprinkles. Overcast.1 mph93%29.95 "HgN/A
11:00 PM
Fri, May 27
66 °FMild.2 mph88%29.93 "HgN/A
10:00 PM68 °FMild.1 mph83%29.91 "HgN/A
9:00 PM70 °FMild.1 mph76%29.91 "HgN/A
8:00 PM72 °FMild.3 mph70%29.90 "HgN/A
7:00 PM74 °FMild.5 mph63%29.90 "HgN/A
6:00 PM76 °FMild.3 mph62%29.90 "HgN/A
5:00 PM78 °FWarm.5 mph54%29.89 "HgN/A
4:00 PM78 °FWarm.5 mph53%29.90 "HgN/A
3:00 PM77 °FMild.3 mph60%29.91 "HgN/A
2:00 PM75 °FMild.3 mph64%29.92 "HgN/A
Weather by CustomWeather, © 2016

See weather overviewHow to use our weather pages